When you browse on this site, cookies collect data to enhance your experience and personalize the content and advertising you see.
Visit our Privacy Policy to learn more. By continuing to use the site, you agree to this use of cookies and data.
  • In Latvia
  • List of Countries
  • For 7 days
  • Water Temperature
  • Satellite Maps
  • Weather Map
  • Weather Widgets
  • user-avatar
    Login

    Hourly Weather Kriens

    Today, 15 July, Monday

    Time Temperature Precipitation Wind Pressure Humidity
    00:00 +14°C° 0.6 mm 1 mps 709 mmHg 97%
    01:00 +14°C° 0 mm 1 mps 709 mmHg 97%
    02:00 +14°C° 0.4 mm 1 mps 709 mmHg 97%
    03:00 +13°C° 0.4 mm 1 mps 709 mmHg 97%
    04:00 +13°C° 0.4 mm 1 mps 709 mmHg 97%
    05:00 +13°C° 0.1 mm 1 mps 709 mmHg 96%
    06:00 +13°C° 0.1 mm 1 mps 709 mmHg 96%
    07:00 +14°C° 0 mm 2 mps 709 mmHg 97%
    08:00 +14°C° 0.1 mm 2 mps 709 mmHg 94%
    09:00 +15°C° 0.1 mm 2 mps 709 mmHg 92%
    10:00 +16°C° 0.1 mm 2 mps 710 mmHg 90%
    11:00 +17°C° 0.1 mm 2 mps 709 mmHg 87%
    12:00 +17°C° 0.1 mm 2 mps 709 mmHg 84%
    13:00 +18°C° 0 mm 2 mps 710 mmHg 78%
    14:00 +19°C° 0.1 mm 2 mps 710 mmHg 75%
    15:00 +20°C° 0.1 mm 2 mps 710 mmHg 73%
    16:00 +20°C° 0.1 mm 2 mps 710 mmHg 70%
    17:00 +20°C° 0.3 mm 2 mps 710 mmHg 76%
    18:00 +20°C° 0.3 mm 1 mps 710 mmHg 82%
    19:00 +19°C° 0.3 mm 1 mps 710 mmHg 89%
    20:00 +18°C° 0 mm 1 mps 710 mmHg 91%
    21:00 +16°C° 0 mm 1 mps 710 mmHg 92%
    22:00 +13°C° 0 mm 0 mps 710 mmHg 94%
    23:00 +13°C° 0 mm 0 mps 711 mmHg 94%

    Tomorrow, 16 July, Tuesday

    Time Temperature Precipitation Wind Pressure Humidity
    00:00 +12°C° 0 mm 0 mps 711 mmHg 94%
    01:00 +12°C° 0 mm 0 mps 711 mmHg 94%
    02:00 +12°C° 0 mm 0 mps 711 mmHg 94%
    03:00 +11°C° 0 mm 0 mps 711 mmHg 95%
    04:00 +11°C° 0 mm 0 mps 710 mmHg 95%
    05:00 +12°C° 0 mm 0 mps 711 mmHg 93%
    06:00 +13°C° 0 mm 0 mps 711 mmHg 92%
    07:00 +15°C° 0 mm 0 mps 711 mmHg 90%
    08:00 +16°C° 0 mm 0 mps 711 mmHg 82%
    09:00 +20°C° 0 mm 1 mps 711 mmHg 74%
    10:00 +22°C° 0 mm 1 mps 712 mmHg 65%
    11:00 +23°C° 0 mm 1 mps 712 mmHg 60%
    12:00 +24°C° 0 mm 2 mps 712 mmHg 55%
    13:00 +26°C° 0 mm 2 mps 712 mmHg 50%
    14:00 +26°C° 0 mm 2 mps 711 mmHg 48%
    15:00 +26°C° 0 mm 2 mps 711 mmHg 47%
    16:00 +26°C° 0 mm 2 mps 711 mmHg 46%
    17:00 +25°C° 0 mm 1 mps 711 mmHg 54%
    18:00 +23°C° 0 mm 1 mps 711 mmHg 62%
    19:00 +22°C° 0 mm 1 mps 711 mmHg 69%
    20:00 +20°C° 0 mm 1 mps 711 mmHg 73%
    21:00 +18°C° 0 mm 1 mps 711 mmHg 77%
    22:00 +16°C° 0 mm 1 mps 711 mmHg 81%
    23:00 +15°C° 0 mm 1 mps 711 mmHg 81%

    Day after tomorrow, 17 July, Wednesday

    Time Temperature Precipitation Wind Pressure Humidity
    00:00 +15°C° 0 mm 1 mps 711 mmHg 82%
    01:00 +15°C° 0 mm 1 mps 711 mmHg 83%
    02:00 +14°C° 0 mm 1 mps 710 mmHg 83%
    03:00 +14°C° 0 mm 1 mps 710 mmHg 83%
    04:00 +14°C° 0 mm 1 mps 710 mmHg 84%
    05:00 +14°C° 0 mm 0 mps 710 mmHg 80%
    06:00 +16°C° 0 mm 0 mps 710 mmHg 77%
    07:00 +17°C° 0 mm 0 mps 710 mmHg 74%
    08:00 +19°C° 0 mm 0 mps 710 mmHg 68%
    09:00 +23°C° 0 mm 1 mps 710 mmHg 62%
    10:00 +25°C° 0 mm 1 mps 710 mmHg 55%
    11:00 +26°C° 0 mm 1 mps 710 mmHg 53%
    12:00 +26°C° 0 mm 2 mps 710 mmHg 50%
    13:00 +27°C° 0 mm 2 mps 710 mmHg 47%
    14:00 +27°C° 0.1 mm 2 mps 710 mmHg 47%
    15:00 +26°C° 0.1 mm 2 mps 710 mmHg 48%
    16:00 +26°C° 0.1 mm 2 mps 710 mmHg 49%
    17:00 +25°C° 0.2 mm 2 mps 709 mmHg 61%
    18:00 +23°C° 0.2 mm 1 mps 709 mmHg 70%
    19:00 +22°C° 0.2 mm 1 mps 709 mmHg 78%
    20:00 +21°C° 0 mm 1 mps 709 mmHg 81%
    21:00 +19°C° 0 mm 1 mps 709 mmHg 83%
    22:00 +16°C° 0 mm 1 mps 709 mmHg 85%
    23:00 +16°C° 0 mm 1 mps 709 mmHg 86%

    18 July, Thursday

    Time Temperature Precipitation Wind Pressure Humidity
    00:00 +16°C° 0 mm 1 mps 709 mmHg 86%
    01:00 +15°C° 0 mm 1 mps 709 mmHg 86%
    02:00 +15°C° 0 mm 1 mps 709 mmHg 86%
    03:00 +15°C° 0 mm 1 mps 709 mmHg 86%
    04:00 +15°C° 0 mm 1 mps 708 mmHg 86%
    05:00 +16°C° 0 mm 1 mps 709 mmHg 85%
    06:00 +16°C° 0 mm 0 mps 709 mmHg 83%
    07:00 +17°C° 0 mm 0 mps 709 mmHg 82%
    08:00 +21°C° 0 mm 1 mps 709 mmHg 74%
    09:00 +22°C° 0 mm 1 mps 709 mmHg 66%
    10:00 +24°C° 0 mm 2 mps 710 mmHg 58%
    11:00 +24°C° 0 mm 2 mps 709 mmHg 55%
    12:00 +25°C° 0 mm 2 mps 709 mmHg 53%
    13:00 +25°C° 0 mm 2 mps 709 mmHg 51%
    14:00 +25°C° 0.1 mm 2 mps 709 mmHg 51%
    15:00 +25°C° 0.1 mm 2 mps 709 mmHg 52%
    16:00 +25°C° 0.1 mm 2 mps 709 mmHg 53%
    17:00 +24°C° 0.1 mm 2 mps 709 mmHg 61%
    18:00 +23°C° 0.1 mm 1 mps 709 mmHg 69%
    19:00 +21°C° 0.1 mm 1 mps 709 mmHg 77%
    20:00 +20°C° 0 mm 1 mps 710 mmHg 78%
    21:00 +19°C° 0 mm 1 mps 710 mmHg 80%
    22:00 +16°C° 0 mm 1 mps 710 mmHg 82%
    23:00 +16°C° 0 mm 1 mps 710 mmHg 82%

    19 July, Friday

    Time Temperature Precipitation Wind Pressure Humidity
    00:00 +16°C° 0 mm 1 mps 710 mmHg 83%
    01:00 +15°C° 0 mm 1 mps 710 mmHg 83%
    02:00 +15°C° 0 mm 1 mps 710 mmHg 84%
    03:00 +15°C° 0 mm 1 mps 710 mmHg 84%
    04:00 +15°C° 0 mm 1 mps 710 mmHg 85%
    05:00 +16°C° 0 mm 1 mps 710 mmHg 82%
    06:00 +18°C° 0 mm 1 mps 710 mmHg 80%
    07:00 +19°C° 0 mm 1 mps 711 mmHg 77%
    08:00 +21°C° 0 mm 1 mps 711 mmHg 69%
    09:00 +23°C° 0 mm 1 mps 711 mmHg 61%
    10:00 +25°C° 0 mm 1 mps 712 mmHg 53%
    11:00 +26°C° 0 mm 1 mps 712 mmHg 51%
    12:00 +27°C° 0 mm 1 mps 711 mmHg 49%
    13:00 +27°C° 0 mm 1 mps 711 mmHg 47%
    14:00 +27°C° 0 mm 1 mps 711 mmHg 49%
    15:00 +27°C° 0 mm 2 mps 711 mmHg 50%
    16:00 +27°C° 0 mm 2 mps 711 mmHg 51%
    17:00 +26°C° 0.1 mm 1 mps 711 mmHg 60%
    18:00 +24°C° 0.1 mm 1 mps 711 mmHg 69%
    19:00 +23°C° 0.1 mm 1 mps 712 mmHg 77%
    20:00 +21°C° 0 mm 1 mps 712 mmHg 82%
    21:00 +20°C° 0 mm 1 mps 712 mmHg 86%
    22:00 +18°C° 0 mm 1 mps 712 mmHg 90%
    23:00 +18°C° 0 mm 1 mps 712 mmHg 90%

    20 July, Saturday

    Time Temperature Precipitation Wind Pressure Humidity
    00:00 +18°C° 0 mm 1 mps 712 mmHg 90%
    01:00 +16°C° 0 mm 1 mps 712 mmHg 90%
    02:00 +16°C° 0 mm 1 mps 712 mmHg 90%
    03:00 +16°C° 0 mm 1 mps 712 mmHg 90%
    04:00 +16°C° 0 mm 1 mps 712 mmHg 89%
    05:00 +18°C° 0 mm 1 mps 712 mmHg 86%
    06:00 +20°C° 0 mm 1 mps 712 mmHg 82%
    07:00 +21°C° 0 mm 1 mps 712 mmHg 79%
    08:00 +23°C° 0 mm 1 mps 713 mmHg 71%
    09:00 +25°C° 0 mm 1 mps 713 mmHg 63%
    10:00 +27°C° 0 mm 1 mps 713 mmHg 56%
    11:00 +28°C° 0.3 mm 1 mps 713 mmHg 55%
    12:00 +28°C° 0.3 mm 1 mps 713 mmHg 54%
    13:00 +29°C° 0.3 mm 1 mps 713 mmHg 53%
    14:00 +29°C° 0.6 mm 2 mps 713 mmHg 55%
    15:00 +28°C° 0.6 mm 2 mps 713 mmHg 56%
    16:00 +28°C° 0.6 mm 2 mps 713 mmHg 58%
    17:00 +26°C° 1 mm 2 mps 713 mmHg 67%
    18:00 +24°C° 1 mm 1 mps 713 mmHg 76%
    19:00 +22°C° 1 mm 1 mps 713 mmHg 85%
    20:00 +21°C° 0.6 mm 1 mps 713 mmHg 87%
    21:00 +20°C° 0.6 mm 1 mps 714 mmHg 88%
    22:00 +18°C° 0.6 mm 2 mps 714 mmHg 89%
    23:00 +17°C° 1.2 mm 2 mps 714 mmHg 90%
    Show more